| time (UTC) | temp F | wind direction | speed knots | gust knots | rain 1hr in | rain 24hr in | rain mn in | humidity % | barometer mb |
| 20260507143027 | 69 | 0 | 0.0 | 0.0 | 0.00 | 0.00 | 0.00 | 33 | 1014.0 |
| 20260507142509 | 68 | 0 | 0.0 | 0.0 | 0.00 | 0.00 | 0.00 | 35 | 1014.1 |
| 20260507142011 | 68 | 0 | 0.0 | 0.0 | 0.00 | 0.00 | 0.00 | 37 | 1014.1 |
| 20260507141528 | 67 | 0 | 0.0 | 0.0 | 0.00 | 0.00 | 0.00 | 37 | 1013.9 |
| 20260507141008 | 67 | 0 | 0.0 | 0.0 | 0.00 | 0.00 | 0.00 | 38 | 1013.9 |
| 20260507140511 | 66 | 0 | 0.0 | 0.0 | 0.00 | 0.00 | 0.00 | 40 | 1013.9 |
| 20260507140030 | 66 | 0 | 0.0 | 0.0 | 0.00 | 0.00 | 0.00 | 41 | 1013.9 |
| 20260507135508 | 65 | 0 | 0.0 | 0.0 | 0.00 | 0.00 | 0.00 | 41 | 1013.8 |
| 20260507135011 | 64 | 0 | 0.0 | 0.0 | 0.00 | 0.00 | 0.00 | 42 | 1013.8 |
| 20260507134531 | 63 | 0 | 0.0 | 0.9 | 0.00 | 0.00 | 0.00 | 42 | 1013.8 |
| 20260507134008 | 62 | 0 | 0.0 | 0.9 | 0.00 | 0.00 | 0.00 | 42 | 1013.7 |
| 20260507133513 | 62 | 0 | 0.0 | 0.9 | 0.00 | 0.00 | 0.00 | 42 | 1013.7 |
| 20260507133033 | 61 | 0 | 0.0 | 0.9 | 0.00 | 0.00 | 0.00 | 43 | 1013.7 |
| 20260507132510 | 61 | 0 | 0.0 | 0.9 | 0.00 | 0.00 | 0.00 | 43 | 1013.7 |
| 20260507132010 | 60 | 360 | 0.0 | 0.9 | 0.00 | 0.00 | 0.00 | 42 | 1013.7 |
| 20260507131527 | 60 | 0 | 0.0 | 0.9 | 0.00 | 0.00 | 0.00 | 42 | 1013.5 |
| 20260507131012 | 60 | 0 | 0.0 | 0.9 | 0.00 | 0.00 | 0.00 | 42 | 1013.5 |
| 20260507130518 | 60 | 0 | 0.0 | 0.0 | 0.00 | 0.00 | 0.00 | 42 | 1013.5 |
| 20260507130037 | 60 | 0 | 0.0 | 0.0 | 0.00 | 0.00 | 0.00 | 42 | 1013.5 |
| 20260507125513 | 60 | 0 | 0.0 | 0.9 | 0.00 | 0.00 | 0.00 | 41 | 1013.6 |
| 20260507125008 | 60 | 0 | 0.0 | 0.9 | 0.00 | 0.00 | 0.00 | 41 | 1013.5 |
| 20260507124530 | 60 | 0 | 0.0 | 0.0 | 0.00 | 0.00 | 0.00 | 40 | 1013.6 |
| 20260507124009 | 60 | 0 | 0.0 | 0.9 | 0.00 | 0.00 | 0.00 | 41 | 1013.5 |
| 20260507123511 | 60 | 0 | 0.0 | 0.9 | 0.00 | 0.00 | 0.00 | 40 | 1013.5 |
| 20260507123030 | 61 | 0 | 0.0 | 0.9 | 0.00 | 0.00 | 0.00 | 40 | 1013.4 |
| 20260507122508 | 61 | 0 | 0.0 | 0.0 | 0.00 | 0.00 | 0.00 | 39 | 1013.4 |
| 20260507122013 | 61 | 0 | 0.0 | 0.9 | 0.00 | 0.00 | 0.00 | 39 | 1013.4 |
| 20260507121528 | 61 | 0 | 0.0 | 0.9 | 0.00 | 0.00 | 0.00 | 39 | 1013.4 |
| 20260507121011 | 61 | 360 | 0.0 | 0.9 | 0.00 | 0.00 | 0.00 | 40 | 1013.4 |
| 20260507120511 | 61 | 0 | 0.0 | 0.9 | 0.00 | 0.00 | 0.00 | 39 | 1013.4 |
| 20260507120030 | 62 | 0 | 0.0 | 0.0 | 0.00 | 0.00 | 0.00 | 38 | 1013.3 |
| 20260507115509 | 62 | 0 | 0.0 | 0.0 | 0.00 | 0.00 | 0.00 | 38 | 1013.4 |
| 20260507115016 | 62 | 0 | 0.0 | 0.0 | 0.00 | 0.00 | 0.00 | 37 | 1013.5 |
| 20260507114529 | 62 | 0 | 0.0 | 0.0 | 0.00 | 0.00 | 0.00 | 36 | 1013.4 |
| 20260507114014 | 62 | 0 | 0.0 | 0.0 | 0.00 | 0.00 | 0.00 | 37 | 1013.4 |
| 20260507113511 | 62 | 0 | 0.0 | 0.0 | 0.00 | 0.00 | 0.00 | 36 | 1013.5 |
| 20260507113028 | 62 | 0 | 0.0 | 0.9 | 0.00 | 0.00 | 0.00 | 36 | 1013.6 |
| 20260507112509 | 63 | 0 | 0.0 | 0.9 | 0.00 | 0.00 | 0.00 | 36 | 1013.5 |
| 20260507112011 | 63 | 0 | 0.0 | 0.9 | 0.00 | 0.00 | 0.00 | 36 | 1013.4 |
| 20260507111528 | 63 | 0 | 0.0 | 2.6 | 0.00 | 0.00 | 0.00 | 36 | 1013.4 |
| 20260507111010 | 63 | 0 | 0.0 | 2.6 | 0.00 | 0.00 | 0.00 | 36 | 1013.5 |
| 20260507110510 | 63 | 0 | 0.0 | 2.6 | 0.00 | 0.00 | 0.00 | 38 | 1013.5 |
| 20260507110030 | 63 | 0 | 0.0 | 0.9 | 0.00 | 0.00 | 0.00 | 38 | 1013.6 |
| 20260507105510 | 64 | 0 | 0.0 | 0.0 | 0.00 | 0.00 | 0.00 | 37 | 1013.7 |
| 20260507105010 | 64 | 0 | 0.0 | 0.0 | 0.00 | 0.00 | 0.00 | 37 | 1013.6 |
| 20260507104529 | 64 | 0 | 0.0 | 0.0 | 0.00 | 0.00 | 0.00 | 37 | 1013.7 |
| 20260507104010 | 64 | 0 | 0.0 | 0.0 | 0.00 | 0.00 | 0.00 | 37 | 1013.6 |
| 20260507103510 | 64 | 0 | 0.0 | 0.9 | 0.00 | 0.00 | 0.00 | 36 | 1013.8 |
| 20260507103031 | 65 | 0 | 0.0 | 0.9 | 0.00 | 0.00 | 0.00 | 36 | 1013.9 |
| 20260507102508 | 65 | 0 | 0.0 | 1.7 | 0.00 | 0.00 | 0.00 | 36 | 1013.9 |
| 20260507102009 | 65 | 0 | 0.0 | 1.7 | 0.00 | 0.00 | 0.00 | 35 | 1013.9 |
| 20260507101528 | 65 | 0 | 0.0 | 0.9 | 0.00 | 0.00 | 0.00 | 35 | 1013.9 |
| 20260507101008 | 65 | 0 | 0.0 | 1.7 | 0.00 | 0.00 | 0.00 | 34 | 1014.0 |
| 20260507100510 | 65 | 0 | 0.0 | 1.7 | 0.00 | 0.00 | 0.00 | 34 | 1014.1 |
| 20260507100034 | 65 | 0 | 0.0 | 1.7 | 0.00 | 0.00 | 0.00 | 34 | 1014.0 |
| 20260507095511 | 65 | 360 | 0.0 | 0.9 | 0.00 | 0.00 | 0.00 | 34 | 1014.0 |
| 20260507095011 | 65 | 0 | 0.0 | 0.9 | 0.00 | 0.00 | 0.00 | 35 | 1014.0 |
| 20260507094528 | 65 | 0 | 0.0 | 1.7 | 0.00 | 0.00 | 0.00 | 35 | 1014.0 |
| 20260507094010 | 65 | 0 | 0.0 | 1.7 | 0.00 | 0.00 | 0.00 | 35 | 1014.2 |
| 20260507093510 | 65 | 0 | 0.0 | 2.6 | 0.00 | 0.00 | 0.00 | 35 | 1014.0 |
| 20260507093029 | 65 | 0 | 0.0 | 2.6 | 0.00 | 0.00 | 0.00 | 35 | 1014.0 |
| 20260507092515 | 65 | 0 | 0.0 | 1.7 | 0.00 | 0.00 | 0.00 | 36 | 1014.1 |
| 20260507092011 | 65 | 360 | 0.0 | 1.7 | 0.00 | 0.00 | 0.00 | 36 | 1014.0 |
| 20260507091528 | 65 | 0 | 0.0 | 1.7 | 0.00 | 0.00 | 0.00 | 36 | 1014.0 |
| 20260507091011 | 65 | 0 | 0.0 | 1.7 | 0.00 | 0.00 | 0.00 | 36 | 1013.9 |
| 20260507090514 | 65 | 0 | 0.0 | 0.9 | 0.00 | 0.00 | 0.00 | 36 | 1013.9 |
| 20260507090031 | 65 | 0 | 0.0 | 0.9 | 0.00 | 0.00 | 0.00 | 36 | 1013.9 |
| 20260507085512 | 65 | 0 | 0.0 | 0.9 | 0.00 | 0.00 | 0.00 | 35 | 1013.9 |
| 20260507085010 | 65 | 0 | 0.0 | 0.9 | 0.00 | 0.00 | 0.00 | 35 | 1013.8 |
| 20260507084527 | 65 | 0 | 0.0 | 0.0 | 0.00 | 0.00 | 0.00 | 35 | 1013.9 |
| 20260507084013 | 65 | 0 | 0.0 | 0.0 | 0.00 | 0.00 | 0.00 | 35 | 1013.9 |
| 20260507083508 | 66 | 0 | 0.0 | 0.0 | 0.00 | 0.00 | 0.00 | 34 | 1014.0 |
| 20260507083029 | 66 | 0 | 0.0 | 0.0 | 0.00 | 0.00 | 0.00 | 34 | 1014.0 |
| 20260507082508 | 66 | 0 | 0.0 | 0.0 | 0.00 | 0.00 | 0.00 | 34 | 1014.0 |
| 20260507082010 | 66 | 0 | 0.0 | 0.0 | 0.00 | 0.00 | 0.00 | 33 | 1014.0 |
| 20260507081528 | 66 | 0 | 0.0 | 0.0 | 0.00 | 0.00 | 0.00 | 33 | 1013.9 |
| 20260507081008 | 67 | 0 | 0.0 | 0.0 | 0.00 | 0.00 | 0.00 | 33 | 1014.0 |
| 20260507080509 | 67 | 0 | 0.0 | 0.0 | 0.00 | 0.00 | 0.00 | 33 | 1014.1 |
| 20260507080037 | 67 | 0 | 0.0 | 0.0 | 0.00 | 0.00 | 0.00 | 33 | 1014.1 |
| 20260507075510 | 67 | 0 | 0.0 | 0.0 | 0.00 | 0.00 | 0.00 | 33 | 1014.1 |
| 20260507075009 | 67 | 0 | 0.0 | 0.0 | 0.00 | 0.00 | 0.00 | 33 | 1014.2 |
| 20260507074529 | 67 | 0 | 0.0 | 0.0 | 0.00 | 0.00 | 0.00 | 33 | 1014.2 |
| 20260507074012 | 68 | 0 | 0.0 | 0.0 | 0.00 | 0.00 | 0.00 | 33 | 1014.1 |
| 20260507073511 | 68 | 0 | 0.0 | 0.9 | 0.00 | 0.00 | 0.00 | 33 | 1014.2 |
| 20260507073028 | 68 | 0 | 0.0 | 0.9 | 0.00 | 0.00 | 0.00 | 32 | 1014.1 |
| 20260507072508 | 68 | 0 | 0.0 | 0.9 | 0.00 | 0.00 | 0.00 | 32 | 1014.2 |
| 20260507072012 | 68 | 0 | 0.0 | 0.9 | 0.00 | 0.00 | 0.00 | 31 | 1014.2 |
| 20260507071557 | 68 | 0 | 0.0 | 0.9 | 0.00 | 0.00 | 0.00 | 31 | 1014.2 |
| 20260507071008 | 69 | 0 | 0.0 | 0.9 | 0.00 | 0.00 | 0.00 | 31 | 1014.1 |
| 20260507070514 | 69 | 0 | 0.0 | 0.9 | 0.00 | 0.00 | 0.00 | 31 | 1014.1 |
| 20260507070032 | 69 | 0 | 0.0 | 0.9 | 0.00 | 0.00 | 0.00 | 31 | 1014.1 |
| 20260507065508 | 69 | 0 | 0.0 | 0.0 | 0.00 | 0.00 | 0.00 | 31 | 1014.2 |
| 20260507065010 | 69 | 0 | 0.0 | 0.0 | 0.00 | 0.00 | 0.00 | 30 | 1014.1 |
| 20260507064527 | 69 | 0 | 0.0 | 0.0 | 0.00 | 0.00 | 0.00 | 30 | 1014.2 |
| 20260507064013 | 70 | 0 | 0.0 | 0.9 | 0.00 | 0.00 | 0.00 | 30 | 1014.1 |
| 20260507063510 | 70 | 0 | 0.0 | 0.9 | 0.00 | 0.00 | 0.00 | 30 | 1014.2 |
| 20260507063029 | 70 | 0 | 0.0 | 0.9 | 0.00 | 0.00 | 0.00 | 30 | 1014.2 |
| 20260507062516 | 70 | 0 | 0.0 | 0.0 | 0.00 | 0.00 | 0.00 | 30 | 1014.2 |
| 20260507062010 | 70 | 0 | 0.0 | 0.0 | 0.00 | 0.00 | 0.00 | 29 | 1014.2 |
| 20260507061527 | 71 | 0 | 0.0 | 0.0 | 0.00 | 0.00 | 0.00 | 29 | 1014.2 |
| 20260507061010 | 71 | 0 | 0.0 | 0.0 | 0.00 | 0.00 | 0.00 | 28 | 1014.4 |
| 20260507060510 | 71 | 0 | 0.0 | 0.0 | 0.00 | 0.00 | 0.00 | 28 | 1014.3 |
| 20260507060035 | 72 | 0 | 0.0 | 0.0 | 0.00 | 0.00 | 0.00 | 28 | 1014.3 |
| 20260507055509 | 72 | 0 | 0.0 | 0.0 | 0.00 | 0.00 | 0.00 | 27 | 1014.3 |
| 20260507055015 | 72 | 0 | 0.0 | 0.0 | 0.00 | 0.00 | 0.00 | 27 | 1014.3 |
| 20260507054528 | 72 | 0 | 0.0 | 0.0 | 0.00 | 0.00 | 0.00 | 27 | 1014.2 |
| 20260507054012 | 73 | 0 | 0.0 | 0.0 | 0.00 | 0.00 | 0.00 | 27 | 1014.2 |
| 20260507053509 | 73 | 0 | 0.0 | 0.0 | 0.00 | 0.00 | 0.00 | 27 | 1014.3 |
| 20260507053039 | 73 | 0 | 0.0 | 0.0 | 0.00 | 0.00 | 0.00 | 26 | 1014.1 |
| 20260507052510 | 73 | 0 | 0.0 | 0.0 | 0.00 | 0.00 | 0.00 | 26 | 1014.1 |
| 20260507052011 | 73 | 0 | 0.0 | 0.9 | 0.00 | 0.00 | 0.00 | 26 | 1014.1 |
| 20260507051539 | 74 | 0 | 0.0 | 0.9 | 0.00 | 0.00 | 0.00 | 25 | 1014.1 |
| 20260507051009 | 74 | 0 | 0.0 | 0.9 | 0.00 | 0.00 | 0.00 | 25 | 1013.9 |
| 20260507050514 | 74 | 360 | 0.0 | 0.9 | 0.00 | 0.00 | 0.00 | 25 | 1014.0 |
| 20260507050035 | 74 | 0 | 0.0 | 0.0 | 0.00 | 0.00 | 0.00 | 25 | 1013.9 |
| 20260507045510 | 74 | 0 | 0.0 | 0.9 | 0.00 | 0.00 | 0.00 | 24 | 1013.9 |
| 20260507045010 | 75 | 0 | 0.0 | 1.7 | 0.00 | 0.00 | 0.00 | 24 | 1013.8 |
| 20260507044529 | 75 | 0 | 0.0 | 1.7 | 0.00 | 0.00 | 0.00 | 24 | 1013.8 |
| 20260507044009 | 75 | 360 | 0.0 | 1.7 | 0.00 | 0.00 | 0.00 | 24 | 1013.8 |
| 20260507043512 | 75 | 0 | 0.0 | 1.7 | 0.00 | 0.00 | 0.00 | 24 | 1013.8 |
| 20260507043028 | 75 | 0 | 0.0 | 0.0 | 0.00 | 0.00 | 0.00 | 24 | 1013.8 |
| 20260507042509 | 76 | 0 | 0.0 | 0.9 | 0.00 | 0.00 | 0.00 | 24 | 1013.7 |
| 20260507042011 | 76 | 0 | 0.0 | 1.7 | 0.00 | 0.00 | 0.00 | 23 | 1013.6 |
| 20260507041529 | 76 | 0 | 0.0 | 1.7 | 0.00 | 0.00 | 0.00 | 23 | 1013.6 |
| 20260507041010 | 76 | 0 | 0.0 | 1.7 | 0.00 | 0.00 | 0.00 | 23 | 1013.6 |
| 20260507040512 | 77 | 0 | 0.0 | 0.9 | 0.00 | 0.00 | 0.00 | 24 | 1013.6 |
| 20260507040030 | 77 | 0 | 0.0 | 0.9 | 0.00 | 0.00 | 0.00 | 23 | 1013.5 |
| 20260507035509 | 77 | 0 | 0.0 | 0.9 | 0.00 | 0.00 | 0.00 | 23 | 1013.4 |
| 20260507035008 | 77 | 0 | 0.0 | 0.9 | 0.00 | 0.00 | 0.00 | 23 | 1013.4 |
| 20260507034535 | 77 | 0 | 0.0 | 0.9 | 0.00 | 0.00 | 0.00 | 23 | 1013.4 |
| 20260507034010 | 78 | 0 | 0.0 | 0.0 | 0.00 | 0.00 | 0.00 | 23 | 1013.3 |
| 20260507033509 | 78 | 0 | 0.0 | 0.0 | 0.00 | 0.00 | 0.00 | 23 | 1013.4 |
| 20260507033038 | 78 | 0 | 0.0 | 0.9 | 0.00 | 0.00 | 0.00 | 23 | 1013.3 |
| 20260507032509 | 78 | 0 | 0.0 | 1.7 | 0.00 | 0.00 | 0.00 | 22 | 1013.2 |
| 20260507032012 | 79 | 0 | 0.0 | 1.7 | 0.00 | 0.00 | 0.00 | 22 | 1013.1 |
| 20260507031529 | 79 | 0 | 0.0 | 1.7 | 0.00 | 0.00 | 0.00 | 22 | 1013.1 |
| 20260507031008 | 79 | 263 | 0.0 | 2.6 | 0.00 | 0.00 | 0.00 | 22 | 1012.9 |
| 20260507030508 | 79 | 0 | 0.0 | 2.6 | 0.00 | 0.00 | 0.00 | 22 | 1012.8 |
| 20260507030030 | 80 | 263 | 0.0 | 1.7 | 0.00 | 0.00 | 0.00 | 22 | 1012.8 |
| 20260507025510 | 80 | 0 | 0.0 | 1.7 | 0.00 | 0.00 | 0.00 | 22 | 1012.6 |
| 20260507025012 | 80 | 0 | 0.0 | 0.9 | 0.00 | 0.00 | 0.00 | 21 | 1012.7 |
| 20260507024530 | 80 | 0 | 0.0 | 1.7 | 0.00 | 0.00 | 0.00 | 21 | 1012.6 |
| 20260507024009 | 80 | 0 | 0.0 | 1.7 | 0.00 | 0.00 | 0.00 | 21 | 1012.5 |
| 20260507023511 | 81 | 0 | 0.0 | 1.7 | 0.00 | 0.00 | 0.00 | 21 | 1012.5 |
| 20260507023034 | 81 | 0 | 0.0 | 2.6 | 0.00 | 0.00 | 0.00 | 21 | 1012.6 |
| 20260507022511 | 81 | 263 | 0.0 | 2.6 | 0.00 | 0.00 | 0.00 | 20 | 1012.4 |
| 20260507022009 | 81 | 263 | 0.9 | 3.5 | 0.00 | 0.00 | 0.00 | 20 | 1012.4 |
| 20260507021531 | 81 | 263 | 0.9 | 3.5 | 0.00 | 0.00 | 0.00 | 20 | 1012.3 |
| 20260507021010 | 82 | 263 | 0.0 | 2.6 | 0.00 | 0.00 | 0.00 | 20 | 1012.3 |
| 20260507020512 | 82 | 269 | 0.9 | 2.6 | 0.00 | 0.00 | 0.00 | 20 | 1012.3 |
| 20260507020030 | 82 | 269 | 0.0 | 3.5 | 0.00 | 0.00 | 0.00 | 20 | 1012.3 |
| 20260507015508 | 82 | 269 | 0.9 | 6.1 | 0.00 | 0.00 | 0.00 | 20 | 1012.2 |
| 20260507015012 | 83 | 266 | 1.7 | 6.1 | 0.00 | 0.00 | 0.00 | 20 | 1012.2 |
| 20260507014529 | 83 | 262 | 0.9 | 6.1 | 0.00 | 0.00 | 0.00 | 19 | 1012.2 |
| 20260507014011 | 83 | 271 | 0.9 | 5.2 | 0.00 | 0.00 | 0.00 | 19 | 1012.2 |
| 20260507013508 | 83 | 266 | 0.9 | 5.2 | 0.00 | 0.00 | 0.00 | 19 | 1012.2 |
| 20260507013029 | 83 | 254 | 0.9 | 5.2 | 0.00 | 0.00 | 0.00 | 20 | 1012.2 |
| 20260507012509 | 83 | 239 | 0.9 | 3.5 | 0.00 | 0.00 | 0.00 | 19 | 1012.1 |
| 20260507012012 | 83 | 236 | 1.7 | 3.5 | 0.00 | 0.00 | 0.00 | 19 | 1012.2 |
| 20260507011533 | 84 | 217 | 0.9 | 5.2 | 0.00 | 0.00 | 0.00 | 19 | 1012.3 |
| 20260507011010 | 84 | 255 | 1.7 | 6.1 | 0.00 | 0.00 | 0.00 | 19 | 1012.2 |
| 20260507010511 | 84 | 246 | 2.6 | 6.1 | 0.00 | 0.00 | 0.00 | 19 | 1012.2 |
| 20260507010034 | 85 | 0 | 0.9 | 4.3 | 0.00 | 0.00 | 0.00 | 19 | 1012.2 |
| 20260507005508 | 84 | 0 | 0.9 | 7.0 | 0.00 | 0.00 | 0.00 | 19 | 1012.3 |
| 20260507005015 | 84 | 213 | 1.7 | 7.0 | 0.00 | 0.00 | 0.00 | 18 | 1012.3 |
| 20260507004536 | 85 | 282 | 1.7 | 7.0 | 0.00 | 0.00 | 0.00 | 18 | 1012.2 |
| 20260507004010 | 85 | 232 | 1.7 | 6.1 | 0.00 | 0.00 | 0.00 | 18 | 1012.1 |
| 20260507003512 | 85 | 283 | 1.7 | 6.1 | 0.00 | 0.00 | 0.00 | 18 | 1012.2 |
| 20260507003029 | 85 | 0 | 0.9 | 3.5 | 0.00 | 0.00 | 0.00 | 19 | 1012.2 |
| 20260507002512 | 85 | 275 | 0.0 | 6.1 | 0.00 | 0.00 | 0.00 | 18 | 1012.2 |
| 20260507002017 | 85 | 279 | 1.7 | 7.0 | 0.00 | 0.00 | 0.00 | 19 | 1012.3 |
| 20260507001526 | 85 | 0 | 1.7 | 7.0 | 0.00 | 0.00 | 0.00 | 19 | 1012.2 |
| 20260507001012 | 85 | 269 | 0.9 | 7.8 | 0.00 | 0.00 | 0.00 | 19 | 1012.3 |
| 20260507000509 | 86 | 341 | 1.7 | 7.8 | 0.00 | 0.00 | 0.00 | 18 | 1012.3 |
| 20260507000028 | 86 | 0 | 0.9 | 3.5 | 0.00 | 0.00 | 0.00 | 18 | 1012.2 |
| 20260506235511 | 86 | 297 | 0.9 | 3.5 | 0.00 | 0.00 | 0.00 | 18 | 1012.3 |
| 20260506235008 | 85 | 297 | 0.0 | 4.3 | 0.00 | 0.00 | 0.00 | 18 | 1012.4 |
| 20260506234530 | 85 | 294 | 0.0 | 5.2 | 0.00 | 0.00 | 0.00 | 18 | 1012.5 |
| 20260506234011 | 86 | 284 | 0.9 | 5.2 | 0.00 | 0.00 | 0.00 | 18 | 1012.6 |
| 20260506233509 | 86 | 256 | 1.7 | 8.7 | 0.00 | 0.00 | 0.00 | 18 | 1012.5 |
| 20260506233028 | 86 | 271 | 2.6 | 8.7 | 0.00 | 0.00 | 0.00 | 18 | 1012.5 |
| 20260506232509 | 86 | 360 | 2.6 | 6.1 | 0.00 | 0.00 | 0.00 | 17 | 1012.5 |
| 20260506232009 | 86 | 312 | 1.7 | 6.1 | 0.00 | 0.00 | 0.00 | 17 | 1012.6 |
| 20260506231527 | 86 | 297 | 0.9 | 5.2 | 0.00 | 0.00 | 0.00 | 18 | 1012.6 |
| 20260506231008 | 86 | 0 | 0.0 | 5.2 | 0.00 | 0.00 | 0.00 | 18 | 1012.7 |
| 20260506230509 | 87 | 292 | 2.6 | 5.2 | 0.00 | 0.00 | 0.00 | 17 | 1012.8 |
| 20260506230028 | 87 | 236 | 1.7 | 4.3 | 0.00 | 0.00 | 0.00 | 17 | 1012.8 |
| 20260506225508 | 87 | 0 | 0.9 | 6.1 | 0.00 | 0.00 | 0.00 | 17 | 1012.9 |
| 20260506225015 | 87 | 36 | 1.7 | 7.8 | 0.00 | 0.00 | 0.00 | 17 | 1012.9 |
| 20260506224526 | 87 | 281 | 2.6 | 9.6 | 0.00 | 0.00 | 0.00 | 18 | 1012.9 |
| 20260506224011 | 87 | 246 | 3.5 | 9.6 | 0.00 | 0.00 | 0.00 | 17 | 1012.9 |
| 20260506223512 | 87 | 269 | 0.9 | 6.1 | 0.00 | 0.00 | 0.00 | 19 | 1013.0 |
| 20260506223032 | 86 | 27 | 0.9 | 5.2 | 0.00 | 0.00 | 0.00 | 19 | 1013.0 |
| 20260506222508 | 86 | 22 | 1.7 | 6.1 | 0.00 | 0.00 | 0.00 | 18 | 1013.1 |
| 20260506222013 | 86 | 299 | 0.9 | 6.1 | 0.00 | 0.00 | 0.00 | 18 | 1013.1 |
| 20260506221530 | 86 | 238 | 2.6 | 6.1 | 0.00 | 0.00 | 0.00 | 18 | 1013.1 |
| 20260506221014 | 87 | 238 | 0.9 | 5.2 | 0.00 | 0.00 | 0.00 | 18 | 1013.2 |
| 20260506220507 | 86 | 38 | 1.7 | 5.2 | 0.00 | 0.00 | 0.00 | 18 | 1013.3 |
| 20260506220036 | 86 | 286 | 0.0 | 5.2 | 0.00 | 0.00 | 0.00 | 18 | 1013.4 |
| 20260506215511 | 86 | 0 | 0.9 | 7.8 | 0.00 | 0.00 | 0.00 | 19 | 1013.5 |
| 20260506215012 | 86 | 235 | 1.7 | 7.8 | 0.00 | 0.00 | 0.00 | 18 | 1013.6 |
| 20260506214528 | 86 | 23 | 2.6 | 7.8 | 0.00 | 0.00 | 0.00 | 18 | 1013.6 |
| 20260506214009 | 86 | 278 | 1.7 | 7.0 | 0.00 | 0.00 | 0.00 | 17 | 1013.7 |
| 20260506213509 | 86 | 243 | 0.9 | 6.1 | 0.00 | 0.00 | 0.00 | 19 | 1013.9 |
| 20260506213031 | 86 | 340 | 0.9 | 7.0 | 0.00 | 0.00 | 0.00 | 18 | 1013.9 |
| 20260506212507 | 86 | 333 | 1.7 | 7.0 | 0.00 | 0.00 | 0.00 | 17 | 1014.0 |
| 20260506212009 | 86 | 360 | 2.6 | 7.0 | 0.00 | 0.00 | 0.00 | 19 | 1014.1 |
| 20260506211529 | 86 | 335 | 1.7 | 3.5 | 0.00 | 0.00 | 0.00 | 17 | 1014.2 |
| 20260506211008 | 86 | 328 | 0.9 | 6.1 | 0.00 | 0.00 | 0.00 | 19 | 1014.3 |
| 20260506210512 | 86 | 327 | 1.7 | 6.1 | 0.00 | 0.00 | 0.00 | 18 | 1014.4 |
| 20260506210030 | 85 | 250 | 0.0 | 7.0 | 0.00 | 0.00 | 0.00 | 19 | 1014.4 |
| 20260506205510 | 85 | 268 | 0.9 | 7.0 | 0.00 | 0.00 | 0.00 | 19 | 1014.5 |
| 20260506205010 | 85 | 249 | 1.7 | 7.0 | 0.00 | 0.00 | 0.00 | 18 | 1014.5 |
| 20260506204529 | 85 | 307 | 2.6 | 7.0 | 0.00 | 0.00 | 0.00 | 18 | 1014.5 |
| 20260506204015 | 85 | 329 | 1.7 | 7.0 | 0.00 | 0.00 | 0.00 | 18 | 1014.7 |
| 20260506203516 | 85 | 0 | 0.9 | 7.0 | 0.00 | 0.00 | 0.00 | 18 | 1014.6 |
| 20260506203029 | 86 | 252 | 1.7 | 6.1 | 0.00 | 0.00 | 0.00 | 19 | 1014.8 |
| 20260506202508 | 85 | 103 | 0.0 | 3.5 | 0.00 | 0.00 | 0.00 | 20 | 1014.7 |
| 20260506202017 | 84 | 0 | 0.0 | 5.2 | 0.00 | 0.00 | 0.00 | 20 | 1015.0 |
| 20260506201532 | 83 | 0 | 0.9 | 5.2 | 0.00 | 0.00 | 0.00 | 21 | 1015.0 |
| 20260506201010 | 83 | 273 | 0.9 | 6.1 | 0.00 | 0.00 | 0.00 | 19 | 1015.1 |
| 20260506200508 | 83 | 274 | 1.7 | 6.1 | 0.00 | 0.00 | 0.00 | 21 | 1015.1 |
| 20260506200028 | 83 | 328 | 0.9 | 4.3 | 0.00 | 0.00 | 0.00 | 21 | 1015.1 |
| 20260506195509 | 83 | 0 | 0.9 | 7.8 | 0.00 | 0.00 | 0.00 | 21 | 1015.2 |
| 20260506195011 | 82 | 342 | 0.9 | 7.8 | 0.00 | 0.00 | 0.00 | 22 | 1015.2 |
| 20260506194530 | 82 | 27 | 1.7 | 7.8 | 0.00 | 0.00 | 0.00 | 21 | 1015.3 |
| 20260506194010 | 82 | 223 | 1.7 | 7.8 | 0.00 | 0.00 | 0.00 | 21 | 1015.4 |
| 20260506193512 | 82 | 271 | 1.7 | 6.1 | 0.00 | 0.00 | 0.00 | 24 | 1015.4 |
| 20260506193029 | 82 | 273 | 1.7 | 6.1 | 0.00 | 0.00 | 0.00 | 22 | 1015.5 |
| 20260506192511 | 82 | 315 | 1.7 | 7.0 | 0.00 | 0.00 | 0.00 | 21 | 1015.6 |
| 20260506192012 | 82 | 267 | 2.6 | 9.6 | 0.00 | 0.00 | 0.00 | 23 | 1015.6 |
| 20260506191528 | 82 | 311 | 2.6 | 9.6 | 0.00 | 0.00 | 0.00 | 22 | 1015.6 |
| 20260506191007 | 81 | 237 | 1.7 | 6.1 | 0.00 | 0.00 | 0.00 | 21 | 1015.7 |
| 20260506190514 | 81 | 298 | 0.9 | 3.5 | 0.00 | 0.00 | 0.00 | 22 | 1015.7 |
| 20260506190028 | 81 | 222 | 0.0 | 6.1 | 0.00 | 0.00 | 0.00 | 22 | 1015.7 |
| 20260506185509 | 80 | 215 | 0.9 | 11.3 | 0.00 | 0.00 | 0.00 | 23 | 1015.8 |
| 20260506185008 | 81 | 240 | 4.3 | 11.3 | 0.00 | 0.00 | 0.00 | 22 | 1015.9 |
| 20260506184528 | 81 | 153 | 1.7 | 7.0 | 0.00 | 0.00 | 0.00 | 24 | 1015.9 |
| 20260506184013 | 80 | 256 | 1.7 | 7.0 | 0.00 | 0.00 | 0.00 | 23 | 1015.9 |
| 20260506183508 | 80 | 0 | 0.9 | 7.8 | 0.00 | 0.00 | 0.00 | 26 | 1015.9 |
| 20260506183030 | 80 | 292 | 1.7 | 7.8 | 0.00 | 0.00 | 0.00 | 25 | 1016.0 |
| 20260506182507 | 80 | 244 | 2.6 | 7.8 | 0.00 | 0.00 | 0.00 | 24 | 1016.2 |
| 20260506182009 | 80 | 229 | 0.9 | 3.5 | 0.00 | 0.00 | 0.00 | 25 | 1016.1 |
| 20260506181529 | 80 | 346 | 0.9 | 6.1 | 0.00 | 0.00 | 0.00 | 26 | 1016.3 |
| 20260506181011 | 79 | 344 | 2.6 | 6.1 | 0.00 | 0.00 | 0.00 | 25 | 1016.4 |
| 20260506180508 | 79 | 344 | 0.9 | 6.1 | 0.00 | 0.00 | 0.00 | 26 | 1016.3 |
| 20260506180027 | 79 | 262 | 1.7 | 7.0 | 0.00 | 0.00 | 0.00 | 27 | 1016.3 |
| 20260506175513 | 78 | 0 | 0.9 | 7.0 | 0.00 | 0.00 | 0.00 | 26 | 1016.3 |
| 20260506175017 | 78 | 281 | 1.7 | 7.0 | 0.00 | 0.00 | 0.00 | 28 | 1016.4 |
| 20260506174526 | 78 | 57 | 2.6 | 7.0 | 0.00 | 0.00 | 0.00 | 27 | 1016.3 |
| 20260506174008 | 77 | 21 | 2.6 | 7.0 | 0.00 | 0.00 | 0.00 | 27 | 1016.4 |
| 20260506173512 | 77 | 22 | 0.9 | 7.8 | 0.00 | 0.00 | 0.00 | 28 | 1016.4 |
| 20260506173030 | 77 | 275 | 0.9 | 7.8 | 0.00 | 0.00 | 0.00 | 30 | 1016.4 |
| 20260506172508 | 77 | 275 | 1.7 | 7.8 | 0.00 | 0.00 | 0.00 | 28 | 1016.4 |
| 20260506172007 | 77 | 267 | 1.7 | 6.1 | 0.00 | 0.00 | 0.00 | 29 | 1016.5 |
| 20260506171530 | 77 | 26 | 2.6 | 5.2 | 0.00 | 0.00 | 0.00 | 27 | 1016.4 |
| 20260506171009 | 77 | 344 | 0.0 | 3.5 | 0.00 | 0.00 | 0.00 | 29 | 1016.3 |
| 20260506170510 | 76 | 352 | 0.9 | 6.1 | 0.00 | 0.00 | 0.00 | 29 | 1016.3 |
| 20260506170029 | 76 | 0 | 0.9 | 6.1 | 0.00 | 0.00 | 0.00 | 31 | 1016.3 |
| 20260506165514 | 75 | 124 | 0.9 | 4.3 | 0.00 | 0.00 | 0.00 | 31 | 1016.2 |
| 20260506165009 | 75 | 262 | 0.0 | 5.2 | 0.00 | 0.00 | 0.00 | 31 | 1016.3 |
| 20260506164527 | 75 | 251 | 0.9 | 5.2 | 0.00 | 0.00 | 0.00 | 30 | 1016.3 |
| 20260506164010 | 75 | 277 | 0.0 | 5.2 | 0.00 | 0.00 | 0.00 | 31 | 1016.3 |
| 20260506163511 | 74 | 304 | 0.9 | 3.5 | 0.00 | 0.00 | 0.00 | 31 | 1016.3 |
| 20260506163026 | 74 | 281 | 0.9 | 3.5 | 0.00 | 0.00 | 0.00 | 31 | 1016.3 |
| 20260506162508 | 73 | 277 | 0.9 | 3.5 | 0.00 | 0.00 | 0.00 | 32 | 1016.2 |
| 20260506162011 | 73 | 275 | 0.9 | 3.5 | 0.00 | 0.00 | 0.00 | 33 | 1016.2 |
| 20260506161534 | 72 | 0 | 0.0 | 3.5 | 0.00 | 0.00 | 0.00 | 33 | 1016.2 |
| 20260506161009 | 72 | 262 | 0.9 | 3.5 | 0.00 | 0.00 | 0.00 | 34 | 1016.2 |
| 20260506160513 | 72 | 275 | 1.7 | 3.5 | 0.00 | 0.00 | 0.00 | 33 | 1016.3 |
| 20260506160028 | 72 | 261 | 1.7 | 3.5 | 0.00 | 0.00 | 0.00 | 35 | 1016.3 |
| 20260506155509 | 71 | 261 | 0.0 | 2.6 | 0.00 | 0.00 | 0.00 | 34 | 1016.3 |
| 20260506155009 | 70 | 261 | 0.0 | 2.6 | 0.00 | 0.00 | 0.00 | 34 | 1016.3 |
| 20260506154529 | 70 | 261 | 0.0 | 2.6 | 0.00 | 0.00 | 0.00 | 35 | 1016.2 |
| 20260506154019 | 70 | 0 | 0.9 | 2.6 | 0.00 | 0.00 | 0.00 | 35 | 1016.2 |
| 20260506153516 | 70 | 261 | 0.9 | 2.6 | 0.00 | 0.00 | 0.00 | 36 | 1016.3 |
| 20260506153028 | 69 | 261 | 0.0 | 1.7 | 0.00 | 0.00 | 0.00 | 37 | 1016.3 |
| 20260506152509 | 69 | 261 | 0.0 | 1.7 | 0.00 | 0.00 | 0.00 | 36 | 1016.3 |
| 20260506152013 | 68 | 261 | 0.0 | 1.7 | 0.00 | 0.00 | 0.00 | 37 | 1016.3 |
| 20260506151529 | 68 | 0 | 0.0 | 1.7 | 0.00 | 0.00 | 0.00 | 38 | 1016.2 |
| 20260506151010 | 67 | 261 | 0.9 | 1.7 | 0.00 | 0.00 | 0.00 | 38 | 1016.2 |
| 20260506150510 | 67 | 0 | 0.0 | 2.6 | 0.00 | 0.00 | 0.00 | 39 | 1016.2 |
| 20260506150030 | 66 | 0 | 0.0 | 2.6 | 0.00 | 0.00 | 0.00 | 39 | 1016.2 |
| 20260506145515 | 66 | 261 | 0.0 | 1.7 | 0.00 | 0.00 | 0.00 | 39 | 1016.2 |
| 20260506145011 | 66 | 261 | 0.0 | 1.7 | 0.00 | 0.00 | 0.00 | 40 | 1016.2 |
| 20260506144534 | 65 | 0 | 0.0 | 1.7 | 0.00 | 0.00 | 0.00 | 40 | 1016.2 |
| 20260506144007 | 65 | 261 | 0.0 | 1.7 | 0.00 | 0.00 | 0.00 | 42 | 1016.2 |
| 20260506143508 | 64 | 0 | 0.0 | 2.6 | 0.00 | 0.00 | 0.00 | 43 | 1016.0 |